Waarnemingen

Advertentie
Mijn weer
Blois, Frankrijk (7245): temperatuur & dauwpunt: 17.05.2018 22:00:00 - 23.05.2018 22:00:00 (CEST)Blois, Frankrijk (7245): temperatuur 5cm: 17.05.2018 22:00:00 - 23.05.2018 22:00:00 (CEST)Blois, Frankrijk (7245): temperatuur -20cm & temperatuur -100cm: 17.05.2018 22:00:00 - 23.05.2018 22:00:00 (CEST)Blois, Frankrijk (7245): windsnelheid & windstoten: 17.05.2018 22:00:00 - 23.05.2018 22:00:00 (CEST)Blois, Frankrijk (7245): windrichting: 17.05.2018 22:00:00 - 23.05.2018 22:00:00 (CEST)Blois, Frankrijk (7245): luchtdruk: 17.05.2018 22:00:00 - 23.05.2018 22:00:00 (CEST)Blois, Frankrijk (7245): zicht: 17.05.2018 22:00:00 - 23.05.2018 22:00:00 (CEST)Blois, Frankrijk (7245): Zonneschijnduur: 17.05.2018 22:00:00 - 23.05.2018 22:00:00 (CEST)Blois, Frankrijk (7245): neerslag: 17.05.2018 22:00:00 - 23.05.2018 22:00:00 (CEST)
Datum & Tijd tt [°C] td [°C] tt 5cm [°C] tt -20cm [°C] tt -100cm [°C] ff [km/u] ff [kn] fx [km/u] fx [kn] dd ppp [hPa] vv [km] sd [min] rr [mm]
23.05.2018 22:00:00 15,1 12,6 14,4 15,4 13,2 7 4 13 7 NO 1017,9 20 0 0,0
23.05.2018 21:00:00 17,0 13,3 16,5 15,3 13,2 10 6 21 11 ONO 1017,5 20 2 0,0
23.05.2018 20:00:00 19,7 14,9 18,8 15,2 13,2 7 4 21 11 OZO 1016,9 20 16 0,0
23.05.2018 19:00:00 21,6 13,0 19,9 15,2 13,2 10 5 22 12 ONO 1016,4 20 25 0,0
23.05.2018 18:00:00 22,1 14,2 20,8 15,0 13,2 12 6 26 14 NNO 1016,7 19 33 0,0
23.05.2018 17:00:00 21,7 13,8 22,7 15,0 13,2 11 6 28 15 NO 1016,8 19 40 0,0
23.05.2018 16:00:00 22,2 14,8 23,3 14,8 13,2 13 7 29 16 NNO 1017,2 19 52 0,0
23.05.2018 15:00:00 21,7 14,8 23,4 14,7 13,1 13 7 27 15 NNO 1017,6 18 54 0,0
23.05.2018 14:00:00 20,4 15,0 22,6 14,7 13,1 14 7 29 15 NNO 1017,9 11 47 0,0
23.05.2018 13:00:00 19,8 14,6 19,2 14,6 13,1 15 8 23 13 N 1018,4 10 51 0,0
23.05.2018 12:00:00 17,8 13,9 18,6 14,6 13,1 9 5 28 15 NNO 1018,6 8 23 0,0
23.05.2018 11:00:00 18,4 14,3 17,3 14,6 13,1 10 5 21 11 NNO 1018,3 9 55 0,0
23.05.2018 10:00:00 16,5 13,4 14,7 14,7 13,1 6 3 15 8 NNO 1018,3 9 25 0,0
23.05.2018 09:00:00 15,4 12,5 12,5 14,7 13,1 7 4 15 8 NO 1018,1 8 60 0,0
23.05.2018 08:00:00 12,5 10,7 10,9 14,8 13,1 11 6 18 10 N 1018,0 6 50 0,0
23.05.2018 07:00:00 10,6 9,8 8,2 14,9 13,1 10 5 15 8 N 1017,6 6 0 0,0
23.05.2018 06:00:00 10,0 9,2 8,1 15,0 13,1 4 2 9 5 N 1017,2 7 0 0,0
23.05.2018 05:00:00 9,8 9,0 8,3 15,0 13,1 2 1 6 3 N 1017,0 3,4 0 0,2
23.05.2018 04:00:00 9,7 8,8 8,6 15,1 13,1 4 2 9 5 NNW 1016,8 9 0 0,0
23.05.2018 03:00:00 11,5 10,6 9,6 15,1 13,1 6 3 10 6 NNW 1016,5 16 0 0,0
23.05.2018 02:00:00 11,7 10,6 9,9 15,2 13,1 6 3 9 5 NNW 1016,6 17 0 0,0
23.05.2018 01:00:00 12,2 11,1 10,9 15,2 13,1 7 4 9 5 N 1017,1 13 0 0,0
23.05.2018 00:00:00 12,9 11,6 11,6 15,2 13,1 8 4 13 7 N 1016,5 13 0 0,0
22.05.2018 23:00:00 13,5 11,7 13,0 15,2 13,0 9 5 29 16 OZO 1015,6 18 0 0,0
22.05.2018 22:00:00 16,0 11,6 14,5 15,1 13,0 16 9 29 16 NNO 1015,6 20 0 0,0
22.05.2018 21:00:00 17,0 12,5 14,8 15,1 13,1 3 2 12 6 NNO 1014,6 20 0 0,0
22.05.2018 20:00:00 18,7 13,1 16,5 15,0 13,0 2 1 16 9 WNW 1013,9 20 0 0,0
22.05.2018 19:00:00 19,0 14,3 17,9 14,9 13,0 10 5 20 11 WNW 1013,6 20 0 0,0
22.05.2018 18:00:00 21,0 12,9 18,4 14,8 13,0 15 8 28 15 W 1013,3 20 29 0,0
22.05.2018 17:00:00 22,4 13,2 19,2 14,7 13,1 18 10 34 18 ZW 1013,0 20 27 0,0
22.05.2018 16:00:00 21,6 11,6 20,6 14,6 13,0 11 6 22 12 WNW 1013,2 20 35 0,0
22.05.2018 15:00:00 22,7 14,3 22,3 14,6 13,0 9 5 16 9 WNW 1013,2 20 54 0,0
22.05.2018 14:00:00 21,8 13,2 20,8 14,5 13,0 6 3 11 6 NW 1013,4 20 60 0,0
22.05.2018 13:00:00 19,9 15,3 16,9 14,5 13,0 5 3 10 5 NNW 1014,0 19 13 0,0
22.05.2018 12:00:00 16,6 14,2 14,7 14,6 13,0 6 4 10 5 N 1014,2 20 0 0,0
22.05.2018 11:00:00 14,6 13,1 13,0 14,6 13,0 4 2 38 20 WNW 1014,1 18 0 17,8
22.05.2018 10:00:00 15,4 13,4 15,3 14,7 13,0 9 5 13 7 WNW 1014,2 3,9 0 1,0
22.05.2018 09:00:00 16,3 12,6 12,8 14,8 13,0 8 4 16 9 NW 1013,7 10 45 0,0
22.05.2018 08:00:00 12,9 11,8 8,4 14,9 13,0 11 6 19 10 W 1013,7 12 60 0,0
22.05.2018 07:00:00 9,3 8,4 7,8 15,0 13,0 3 2 6 3 ZZW 1012,8 12 14 0,0
22.05.2018 06:00:00 8,5 7,3 8,0 15,1 13,0 0 0 5 3 N 1012,6 18 0 0,0
22.05.2018 05:00:00 9,4 8,0 8,5 15,2 13,0 0 0 8 4 N 1012,7 20 0 0,0
22.05.2018 04:00:00 10,1 8,7 8,6 15,3 13,0 0 0 5 3 N 1012,7 20 0 0,0
22.05.2018 03:00:00 10,3 9,1 9,3 15,3 13,0 2 1 11 6 ZZO 1012,5 20 0 0,0
22.05.2018 02:00:00 11,6 9,8 10,2 15,4 13,0 6 4 9 5 WNW 1012,4 20 0 0,0
22.05.2018 01:00:00 12,4 10,3 11,2 15,4 13,0 6 4 10 5 ZW 1012,5 20 0 0,0
22.05.2018 00:00:00 13,6 11,1 11,9 15,4 13,0 9 5 15 8 ZW 1012,8 20 0 0,0
21.05.2018 23:00:00 14,2 11,2 12,6 15,4 13,0 5 3 16 8 ZZO 1012,6 20 0 0,0
21.05.2018 22:00:00 17,6 11,2 14,3 15,4 13,0 7 4 10 5 ONO 1011,7 20 7 0,0
21.05.2018 21:00:00 19,7 12,5 17,9 15,3 13,0 5 3 11 6 O 1011,3 20 60 0,0
21.05.2018 20:00:00 21,5 12,3 20,1 15,2 13,0 5 3 14 8 ONO 1010,9 20 42 0,0
21.05.2018 19:00:00 23,0 10,8 23,0 15,1 13,0 8 5 21 11 NO 1010,6 20 58 0,0
21.05.2018 18:00:00 24,2 9,7 22,7 15,0 13,0 9 5 18 10 NNW 1010,5 20 55 0,0
21.05.2018 17:00:00 22,6 11,3 22,7 14,9 13,0 7 4 16 8 NO 1010,7 20 35 0,0
21.05.2018 16:00:00 23,2 11,6 24,0 14,7 12,9 8 4 19 10 O 1011,3 20 48 0,0
21.05.2018 15:00:00 22,4 11,8 23,4 14,7 13,0 7 4 18 10 N 1011,7 20 35 0,0
21.05.2018 14:00:00 22,8 11,8 23,1 14,6 13,0 5 3 14 8 NNO 1012,1 20 39 0,0
21.05.2018 13:00:00 21,6 12,2 24,6 14,5 13,0 7 4 19 10 NNO 1012,5 20 56 0,0
21.05.2018 12:00:00 20,7 12,7 21,7 14,4 12,9 6 3 21 11 ONO 1012,8 20 60 0,0
21.05.2018 11:00:00 19,7 13,4 18,7 14,4 12,9 6 3 19 11 ONO 1012,9 20 60 0,0
21.05.2018 10:00:00 18,1 13,2 15,5 14,5 13,0 6 4 16 9 NO 1013,2 19 60 0,0
21.05.2018 09:00:00 15,5 12,1 12,3 14,5 13,0 9 5 16 9 ONO 1013,4 16 60 0,0
21.05.2018 08:00:00 12,6 10,5 10,7 14,5 12,9 12 6 19 10 NNO 1013,7 12 60 0,0
21.05.2018 07:00:00 10,7 9,5 10,6 14,6 12,9 13 7 18 10 NNO 1013,8 8 11 0,0
21.05.2018 06:00:00 11,0 9,7 10,6 14,6 12,9 9 5 18 10 NO 1013,9 11 0 0,0
21.05.2018 05:00:00 10,5 8,8 11,0 14,7 13,0 9 5 20 11 N 1014,2 10 0 0,0
21.05.2018 04:00:00 11,7 9,8 11,4 14,7 12,9 10 5 22 12 NNO 1014,5 16 0 0,0
21.05.2018 03:00:00 12,6 10,1 11,5 14,8 12,9 13 7 24 13 NNO 1014,6 20 0 0,0
21.05.2018 02:00:00 12,4 9,4 10,8 14,8 12,9 13 7 21 11 NNO 1015,2 20 0 0,0
21.05.2018 01:00:00 12,2 8,8 11,7 14,8 12,9 8 5 16 9 N 1015,5 20 0 0,0
21.05.2018 00:00:00 13,7 8,7 12,9 14,8 12,9 14 7 20 11 NNO 1015,7 20 0 0,0
20.05.2018 23:00:00 16,5 8,9 14,4 14,8 12,9 11 6 20 11 NNO 1015,7 20 0 0,0
20.05.2018 22:00:00 17,7 9,6 15,3 14,7 12,9 11 6 19 10 NO 1015,5 20 6 0,0
20.05.2018 21:00:00 19,5 9,9 16,9 14,7 12,9 11 6 23 12 NNO 1015,1 20 60 0,0
20.05.2018 20:00:00 21,3 11,0 19,1 14,6 12,9 10 5 22 12 NO 1014,8 20 60 0,0
20.05.2018 19:00:00 22,4 9,5 21,0 14,5 12,9 12 7 26 14 NO 1014,6 20 60 0,0
20.05.2018 18:00:00 22,5 9,6 22,6 14,3 12,9 14 8 26 14 ONO 1015,4 20 56 0,0
20.05.2018 17:00:00 22,6 10,1 24,0 14,2 12,9 13 7 26 14 NO 1016,0 20 58 0,0
20.05.2018 16:00:00 22,4 9,5 24,8 14,1 12,9 14 8 25 14 ONO 1016,9 19 60 0,0
20.05.2018 15:00:00 21,8 8,3 24,9 14,0 12,9 10 5 27 15 ONO 1017,7 20 60 0,0
20.05.2018 14:00:00 20,9 9,8 23,6 13,9 12,9 14 8 27 14 NNO 1018,4 19 60 0,0
20.05.2018 13:00:00 19,4 10,7 21,9 13,8 12,9 12 6 27 15 NO 1019,0 15 60 0,0
20.05.2018 12:00:00 18,0 11,3 18,9 13,8 12,9 11 6 23 13 NNO 1019,3 13 60 0,0
20.05.2018 11:00:00 16,1 10,2 15,7 13,8 12,9 11 6 19 11 NNO 1019,8 11 60 0,0
20.05.2018 10:00:00 14,1 9,1 11,9 13,9 12,9 9 5 16 9 NO 1020,2 9 60 0,0
20.05.2018 09:00:00 11,1 8,1 9,5 13,9 12,9 11 6 20 11 NNO 1020,5 6 60 0,0
20.05.2018 08:00:00 9,1 7,2 8,2 14,0 12,9 11 6 20 11 N 1020,3 4,5 60 0,0
20.05.2018 07:00:00 7,6 6,5 7,9 14,1 12,9 9 5 17 9 NNO 1020,4 3,8 23 0,0
20.05.2018 06:00:00 7,3 6,1 7,1 14,2 12,9 9 5 18 10 NNO 1020,1 3,9 0 0,0
20.05.2018 05:00:00 7,3 5,9 7,9 14,2 12,9 6 4 19 10 N 1020,5 4,7 0 0,0
20.05.2018 04:00:00 9,0 7,1 8,8 14,3 12,9 11 6 21 11 NO 1020,6 8 0 0,0
20.05.2018 03:00:00 9,3 6,9 9,1 14,3 12,9 11 6 21 12 NNO 1020,8 12 0 0,0
20.05.2018 02:00:00 9,8 6,7 9,6 14,4 12,9 11 6 21 11 NNO 1021,0 19 0 0,0
20.05.2018 01:00:00 11,2 6,7 9,9 14,4 12,9 13 7 22 12 NNO 1020,7 20 0 0,0
20.05.2018 00:00:00 10,8 6,9 10,6 14,5 12,9 11 6 20 11 NNO 1020,9 20 0 0,0
19.05.2018 23:00:00 11,8 7,5 10,4 14,5 12,9 11 6 18 10 N 1020,7 20 0 0,0
19.05.2018 22:00:00 13,0 7,9 11,4 14,4 12,9 8 5 12 6 N 1020,3 20 5 0,0
19.05.2018 21:00:00 16,5 7,4 14,6 14,4 12,9 8 4 18 10 NO 1019,5 20 60 0,0
19.05.2018 20:00:00 18,4 7,2 16,8 14,3 12,9 10 5 23 12 NO 1019,1 20 60 0,0
19.05.2018 19:00:00 19,5 6,9 18,8 14,2 12,9 14 8 29 16 NO 1019,1 20 60 0,0
19.05.2018 18:00:00 19,9 5,9 20,2 14,2 12,9 17 9 31 17 ONO 1019,3 20 60 0,0
19.05.2018 17:00:00 20,6 6,9 21,7 14,0 12,9 14 7 29 16 NNO 1019,6 20 60 0,0
19.05.2018 16:00:00 20,2 7,9 22,3 13,9 12,9 13 7 37 20 NNO 1019,9 18 60 0,0
19.05.2018 15:00:00 19,5 6,6 22,5 13,8 12,9 17 9 37 20 NNO 1020,6 19 60 0,0
19.05.2018 14:00:00 18,6 7,1 21,7 13,7 12,9 16 9 32 17 NNO 1020,8 19 60 0,0
19.05.2018 13:00:00 17,5 7,8 20,7 13,7 12,9 16 9 32 17 NNO 1021,3 19 60 0,0
19.05.2018 12:00:00 16,5 8,5 18,4 13,7 12,9 12 7 29 15 NO 1021,5 18 60 0,0
19.05.2018 11:00:00 15,3 8,3 15,1 13,7 12,9 12 6 24 13 NNO 1021,6 16 60 0,0
19.05.2018 10:00:00 13,4 8,0 11,5 13,8 12,9 11 6 22 12 NNO 1021,8 17 60 0,0
19.05.2018 09:00:00 11,0 6,9 8,8 13,8 12,9 15 8 29 15 NNO 1021,8 15 60 0,0
19.05.2018 08:00:00 8,8 5,9 7,4 13,9 12,8 18 10 27 15 N 1021,6 17 60 0,0
19.05.2018 07:00:00 7,2 5,3 7,2 14,0 12,9 15 8 23 13 NNO 1021,4 16 21 0,0
19.05.2018 06:00:00 7,1 5,2 7,3 14,1 12,9 14 8 23 12 NNO 1021,2 16 0 0,0
19.05.2018 05:00:00 7,3 5,4 7,6 14,2 12,9 13 7 21 12 N 1021,4 18 0 0,0
19.05.2018 04:00:00 7,9 5,5 8,0 14,2 12,8 13 7 24 13 NNO 1021,4 20 0 0,0
19.05.2018 03:00:00 8,2 5,5 8,3 14,3 12,8 13 7 20 11 N 1021,4 20 0 0,0
19.05.2018 02:00:00 8,8 5,4 8,8 14,4 12,8 12 6 18 10 NNO 1021,4 20 0 0,0
19.05.2018 01:00:00 9,4 5,6 8,9 14,4 12,8 11 6 16 8 N 1021,7 20 0 0,0
19.05.2018 00:00:00 9,5 5,3 9,1 14,4 12,8 9 5 14 8 NNO 1021,8 20 0 0,0
18.05.2018 23:00:00 10,8 5,1 9,4 14,5 12,8 10 6 14 8 N 1021,6 20 0 0,0
18.05.2018 22:00:00 11,7 5,3 10,0 14,5 12,8 8 4 13 7 N 1021,1 20 0 0,0
18.05.2018 21:00:00 14,6 5,4 13,5 14,4 12,8 8 5 24 13 N 1020,7 20 15 0,0
18.05.2018 20:00:00 17,7 5,0 15,9 14,4 12,8 13 7 25 14 NNO 1020,4 20 60 0,0
18.05.2018 19:00:00 18,9 5,7 17,8 14,3 12,8 11 6 23 13 NO 1020,3 20 60 0,0
18.05.2018 18:00:00 19,5 5,2 19,6 14,2 12,8 13 7 25 14 NO 1020,3 18 60 0,0
18.05.2018 17:00:00 19,6 4,9 20,7 14,1 12,8 13 7 31 17 NO 1020,3 20 60 0,0
18.05.2018 16:00:00 19,2 7,9 21,6 14,0 12,8 12 6 25 14 ONO 1020,6 20 60 0,0
18.05.2018 15:00:00 18,6 9,6 22,1 13,9 12,8 14 8 31 17 NNO 1021,1 19 60 0,0
18.05.2018 14:00:00 17,8 9,7 20,8 13,8 12,8 15 8 30 16 NNO 1021,8 19 60 0,0
18.05.2018 13:00:00 16,2 10,3 19,5 13,8 12,8 17 9 32 17 NNO 1022,3 16 60 0,0
18.05.2018 12:00:00 14,9 8,8 17,2 13,8 12,8 14 8 28 15 NNO 1022,6 17 58 0,0
18.05.2018 11:00:00 13,6 8,0 14,1 13,8 12,8 14 7 26 14 NNO 1022,6 16 58 0,0
18.05.2018 10:00:00 12,0 6,9 10,9 13,9 12,8 11 6 24 13 NNO 1022,7 17 60 0,0
18.05.2018 09:00:00 10,0 6,2 8,7 14,0 12,8 14 8 27 15 NNO 1023,0 16 60 0,0
18.05.2018 08:00:00 8,5 5,8 7,2 14,1 12,8 10 6 21 11 NNO 1022,8 16 60 0,0
18.05.2018 07:00:00 6,7 4,9 7,2 14,1 12,8 11 6 17 9 NNO 1022,5 13 19 0,0
18.05.2018 06:00:00 6,8 4,9 7,4 14,2 12,8 8 5 15 8 NNO 1022,4 14 0 0,0
18.05.2018 05:00:00 7,2 5,3 7,7 14,3 12,8 11 6 18 10 NNO 1022,5 15 0 0,0
18.05.2018 04:00:00 7,9 5,9 8,2 14,3 12,8 10 6 21 12 NNO 1022,4 17 0 0,0
18.05.2018 03:00:00 8,6 6,2 8,7 14,4 12,8 13 7 28 15 NNO 1022,3 18 0 0,0
18.05.2018 02:00:00 9,8 6,5 9,4 14,4 12,8 17 9 27 15 NNO 1022,4 20 0 0,0
18.05.2018 01:00:00 10,6 6,9 10,1 14,4 12,8 13 7 22 12 NNO 1022,4 20 0 0,0
18.05.2018 00:00:00 11,4 7,3 10,6 14,5 12,8 14 8 19 10 NNO 1022,2 20 0 0,0
17.05.2018 23:00:00 11,7 8,2 11,4 14,5 12,8 10 6 17 9 NNO 1022,2 20 0 0,0
17.05.2018 22:00:00 13,1 9,0 12,0 14,4 12,8 9 5 14 8 N 1021,6 20 2 0,0

tt = temperatuur
td = dauwpunt
tt 5cm = temperatuur 5cm
tt -20cm = temperatuur -20cm
tt -100cm = temperatuur -100cm
ff = windsnelheid
fx = windstoten
dd = windrichting
ppp = luchtdruk
vv = zicht
sd = Zonneschijnduur
rr = neerslag

Weerstations in de omgeving